Showing default

GOSAT 2, 43672

Orbit data source: Space-Track

GOSAT 2, 43672 is a payload satellite owned by JAXA (JP) in SSO that was launched on Mon, 29 Oct 2018 UTC via an H-IIA 202 launch vehicle from the Tanegashima Space Center (TNSTA). Payload-class satellites include a variety of spacecraft equipped with specific instruments for various scientific and technological missions. These include communications satellites like Starlink; space stations such as the ISS; scientific satellites like the Hubble; Earth observation satellites from companies like Planet Labs, Umbra, and HawkEye 360; GPS; miniature CubeSats for education and research; and military/defense satellites.

Loading next visibility...
Identifier
43672, 2018-084B
Orbit
SSO
Country
Flag of JPJP / JPN
Related business
Manufacturer
MELCO
Mission
Operational Civil Science
Bus & Motor
GOSAT, AOCS
Mass
1,750 kg wet, ~1,700 kg dry
Launch date (UTC)
2018-10-29 (7 years ago)
Launch vehicle
H-IIA 202
Launch site
Tanegashima Space Center (TNSTA)
Object type
Payload
Rocket body
Debris
Shape & HBR
Box + 2 Pan, 8.4 m
Radar Cross Section
20.392 m², Large (>1 m²)

Expand to show TLE details & history
Last TLE update: 1 day ago

TLE from 1 day ago
0 GOSAT 2
1 43672U 18084B   26034.27126212  .00002770  00000-0  33712-3 0  9996
2 43672  97.8680 147.5168 0001822 106.7387 253.4028 14.84248453393696
Epoch: 2026-02-03T06:30Z
TLE epoch observation values (Epoch: 2026-02-03T06:30:37.047Z)
Latitude
0.00006°
Longitude
-83.59216°
Altitude
619.338 km
Speed
7.549 km/s
True Right ascension
09h 50m 04s
True Declination
0° 00' 00"
Sunlit
Object was in full shadow at epoch
Visualization orbit readout
Latitude
Unknown
Longitude
Unknown
Altitude
Unknown
Speed
Unknown
Apparent Right ascension
Unknown
Apparent Declination
Unknown
Sunlit
N/A
Visualization observer readout
Local Sidereal Time
13:28:55
Azimuth
Unknown
Elevation
Unknown
Doppler factor
Unknown
Orbital elements
Apogee altitude
614.253 km
Perigee altitude
611.706 km
Semi-major axis
6,991.117 km
Eccentricity
0.00018
Inclination
97.868°
RAAN
147.5168°
Arg. of periapsis
106.7387°
True anomaly
253.38279°
Mean anomaly
253.4028°
Eccentric anomaly
253.3928°
Mean motion
3.71299 °/min
Orbital period
96.96 mins
BSTAR
0.00033712
Loading maneuver chart data...
Computing Atmospheric mass density...
Loading historical data...
Loading historical data...
Loading historical data...
Loading historical data...
Loading historical data...
Loading historical data...
Loading historical data...

Documentation

Showing up to 5 results
|